Date String (YYYY-MM-DD hh:mm:ss) UTC,Instrument flags,Ambient pressure (hPa),Sample flow (lpm),Bypass flow (lpm),Sample temperature (°C),Ambient temperature (°C),ASC tube jacket temperature (°C),LED temperature (°C),Box temperature (°C),Sample RH (%),Span deviation,Mass concentration (μg/m³),Mass concentration (μg/m³),Mass concentration (μg/m³)
DateTimeUTC,F1_M11,P_M11,Q1_M11,Q2_M11,T1_M11,T2_M11,T3_M11,T4_M11,T5_M11,U1_M11,ZSPAN_M11,X0_M11,X2_M11,X1_M11
2022-01-11 19:00:00,,0832.0,5.01,0.00,23.3,22.6,00.0,32.3,25.0,03.7,0000.0,0003.09,0000.78,0000.34
2022-01-11 19:01:00,,0831.9,4.98,0.00,23.3,22.6,00.0,32.3,25.0,03.7,0000.0,0002.96,0000.73,0000.32
2022-01-11 19:02:00,,0831.8,5.02,0.00,23.3,22.6,00.0,32.3,25.0,03.6,0000.0,0002.81,0000.66,0000.29
2022-01-11 19:03:00,,0831.8,4.99,0.00,23.3,22.6,00.0,32.3,25.0,03.9,0000.0,0002.59,0000.60,0000.27
2022-01-11 19:04:00,,0831.7,5.00,0.00,23.3,22.5,00.0,32.3,25.0,04.5,0000.0,0002.43,0000.55,0000.26
2022-01-11 19:05:00,,0831.7,4.99,0.00,23.3,22.5,00.0,32.3,25.0,04.4,0000.0,0002.41,0000.57,0000.25
2022-01-11 19:06:00,,0831.7,5.01,0.00,23.3,22.5,00.0,32.3,25.0,04.5,0000.0,0002.42,0000.59,0000.25
2022-01-11 19:07:00,,0831.7,5.00,0.00,23.3,22.6,00.0,32.3,25.0,03.8,0000.0,0001.77,0000.57,0000.24
2022-01-11 19:08:00,,0831.7,5.00,0.00,23.3,22.6,00.0,32.3,25.0,03.9,0000.0,0001.17,0000.51,0000.23
2022-01-11 19:09:00,,0831.7,5.00,0.00,23.2,22.5,00.0,32.3,25.0,03.8,0000.0,0000.79,0000.43,0000.20
2022-01-11 19:10:00,,0831.8,5.01,0.00,23.2,22.5,00.0,32.3,24.9,04.1,0000.0,0000.78,0000.40,0000.20
2022-01-11 19:11:00,,0831.7,4.99,0.00,23.2,22.5,00.0,32.3,24.9,04.0,0000.0,0000.74,0000.40,0000.21
2022-01-11 19:12:00,,0831.7,5.01,0.00,23.2,22.5,00.0,32.3,25.0,03.8,0000.0,0000.71,0000.38,0000.21
2022-01-11 19:13:00,,0831.7,5.00,0.00,23.2,22.5,00.0,32.3,25.0,03.8,0000.0,0000.72,0000.40,0000.23
2022-01-11 19:14:00,,0831.7,4.99,0.00,23.2,22.5,00.0,32.3,25.0,03.8,0000.0,0000.73,0000.41,0000.24
2022-01-11 19:15:00,,0831.6,5.01,0.00,23.2,22.6,00.0,32.3,25.0,03.9,0000.0,0000.79,0000.45,0000.27
2022-01-11 19:16:00,,0831.6,5.00,0.00,23.3,22.6,00.0,32.3,25.0,04.1,0000.0,0000.76,0000.45,0000.31
2022-01-11 19:17:00,,0831.5,5.00,0.00,23.3,22.6,00.0,32.3,25.0,04.1,0000.0,0000.71,0000.43,0000.33
2022-01-11 19:18:00,,0831.6,5.00,0.00,23.3,22.5,00.0,32.3,25.0,03.9,0000.0,0000.70,0000.43,0000.34
2022-01-11 19:19:00,,0831.5,5.00,0.00,23.3,22.6,00.0,32.3,25.0,03.9,0000.0,0000.68,0000.42,0000.33
2022-01-11 19:20:00,,0831.5,4.99,0.00,23.3,22.6,00.0,32.3,25.0,03.7,0000.0,0000.70,0000.43,0000.34
2022-01-11 19:21:00,,0831.5,5.01,0.00,23.3,22.6,00.0,32.3,25.0,03.6,0000.0,0000.60,0000.41,0000.33
2022-01-11 19:22:00,,0831.4,4.99,0.00,23.3,22.6,00.0,32.3,25.0,03.4,0000.0,0000.52,0000.38,0000.31
2022-01-11 19:23:00,,0831.4,5.01,0.00,23.3,22.6,00.0,32.3,25.0,03.6,0000.0,0000.51,0000.37,0000.30
2022-01-11 19:24:00,,0831.3,4.98,0.00,23.3,22.6,00.0,32.3,25.0,04.7,0000.0,0000.53,0000.38,0000.29
2022-01-11 19:25:00,,0831.3,5.01,0.00,23.3,22.6,00.0,32.3,25.0,03.8,0000.0,0000.51,0000.36,0000.28
2022-01-11 19:26:00,,0831.1,5.00,0.00,23.3,22.6,00.0,32.3,25.1,04.0,0000.0,0000.46,0000.33,0000.25
2022-01-11 19:27:00,,0831.2,4.99,0.00,23.3,22.6,00.0,32.3,25.1,03.8,0000.0,0000.42,0000.28,0000.21
2022-01-11 19:28:00,,0831.2,5.01,0.00,23.3,22.6,00.0,32.3,25.1,03.7,0000.0,0000.51,0000.27,0000.19
2022-01-11 19:29:00,,0831.2,4.99,0.00,23.3,22.7,00.0,32.3,25.1,03.9,0000.0,0000.50,0000.26,0000.18
2022-01-11 19:30:00,,0831.2,5.02,0.00,23.3,22.7,00.0,32.3,25.1,04.0,0000.0,0000.49,0000.26,0000.18
2022-01-11 19:31:00,,0831.2,4.99,0.00,23.4,22.7,00.0,32.3,25.1,04.5,0000.0,0000.47,0000.25,0000.18
2022-01-11 19:32:00,,0831.2,5.00,0.00,23.4,22.7,00.0,32.3,25.1,04.1,0000.0,0000.49,0000.26,0000.18
2022-01-11 19:33:00,,0831.2,5.00,0.00,23.4,22.7,00.0,32.3,25.1,04.2,0000.0,0000.51,0000.27,0000.19
2022-01-11 19:34:00,,0831.2,5.00,0.00,23.4,22.7,00.0,32.3,25.1,04.3,0000.0,0000.51,0000.27,0000.19
2022-01-11 19:35:00,,0831.1,4.99,0.00,23.4,22.7,00.0,32.3,25.1,04.1,0000.0,0000.49,0000.26,0000.19
2022-01-11 19:36:00,,0831.1,5.01,0.00,23.4,22.7,00.0,32.4,25.2,03.8,0000.0,0000.49,0000.26,0000.20
2022-01-11 19:37:00,,0831.0,5.00,0.00,23.4,22.7,00.0,32.4,25.2,04.2,0000.0,0000.46,0000.25,0000.19
2022-01-11 19:38:00,,0831.1,5.00,0.00,23.4,22.7,00.0,32.4,25.2,04.2,0000.0,0000.41,0000.23,0000.20
2022-01-11 19:39:00,,0831.1,5.00,0.00,23.4,22.7,00.0,32.4,25.1,03.9,0000.0,0000.29,0000.22,0000.20
2022-01-11 19:40:00,,0831.0,5.01,0.00,23.4,22.7,00.0,32.4,25.1,04.2,0000.0,0000.33,0000.23,0000.19
2022-01-11 19:41:00,,0831.0,4.99,0.00,23.4,22.7,00.0,32.4,25.2,03.7,0000.0,0000.32,0000.22,0000.19
2022-01-11 19:42:00,,0831.0,5.01,0.00,23.4,22.7,00.0,32.4,25.1,03.4,0000.0,0000.32,0000.22,0000.19
2022-01-11 19:43:00,,0831.0,4.99,0.00,23.4,22.7,00.0,32.4,25.1,03.5,0000.0,0000.30,0000.21,0000.18
2022-01-11 19:44:00,,0831.0,5.00,0.00,23.4,22.7,00.0,32.4,25.1,04.0,0000.0,0000.30,0000.21,0000.18
2022-01-11 19:45:00,,0831.0,5.01,0.00,23.4,22.6,00.0,32.4,25.1,03.7,0000.0,0000.31,0000.22,0000.17
2022-01-11 19:46:00,,0831.0,4.99,0.00,23.4,22.6,00.0,32.4,25.1,03.4,0000.0,0000.33,0000.22,0000.17
2022-01-11 19:47:00,,0831.0,5.02,0.00,23.4,22.6,00.0,32.4,25.1,03.2,0000.0,0000.30,0000.21,0000.16
2022-01-11 19:48:00,,0831.0,5.00,0.00,23.4,22.7,00.0,32.4,25.1,03.5,0000.0,0000.29,0000.20,0000.16
2022-01-11 19:49:00,,0831.0,5.01,0.00,23.4,22.6,00.0,32.4,25.1,03.5,0000.0,0000.28,0000.19,0000.15
2022-01-11 19:50:00,,0831.0,4.99,0.00,23.4,22.6,00.0,32.4,25.1,03.1,0000.0,0000.27,0000.19,0000.15
2022-01-11 19:51:00,,0831.0,5.01,0.00,23.4,22.7,00.0,32.4,25.1,03.1,0000.0,0000.25,0000.18,0000.15
2022-01-11 19:52:00,,0831.0,4.99,0.00,23.4,22.7,00.0,32.4,25.1,03.3,0000.0,0000.29,0000.20,0000.15
2022-01-11 19:53:00,,0830.9,5.00,0.00,23.4,22.7,00.0,32.4,25.2,03.6,0000.0,0000.31,0000.21,0000.16
2022-01-11 19:54:00,,0830.9,5.00,0.00,23.4,22.7,00.0,32.4,25.2,03.8,0000.0,0000.31,0000.22,0000.16
2022-01-11 19:55:00,,0830.9,4.99,0.00,23.4,22.7,00.0,32.4,25.1,03.6,0000.0,0000.29,0000.21,0000.17
2022-01-11 19:56:00,,0830.8,5.01,0.00,23.4,22.7,00.0,32.4,25.2,03.9,0000.0,0000.30,0000.21,0000.17
2022-01-11 19:57:00,,0830.8,4.99,0.00,23.4,22.7,00.0,32.4,25.2,03.7,0000.0,0000.31,0000.21,0000.17
2022-01-11 19:58:00,,0830.8,5.01,0.00,23.4,22.7,00.0,32.4,25.2,03.9,0000.0,0000.35,0000.23,0000.18
2022-01-11 19:59:00,,0830.8,4.99,0.00,23.4,22.7,00.0,32.4,25.2,03.6,0000.0,0000.36,0000.24,0000.18
